STARLINK-3282 (50177 NORAD) Tracking and Keplerian Element Data

This shows tracking and keplerian element data for the satellite.

Feedback or suggestion? Click here.




ElementValue
Catalog50177
NameSTARLINK-3282
Epoch Orbit2645
Epoch Day140.91667824
Epoch Year2022
RAAN3.5712
Inclination53.2184
Eccentricity0.0002329
Argument of Perigee37.5995
Mean Anonmoly0.5043
Mean Motion15.08825109
Decay Rate9.459E-05
L11 50177U 21125X 22140.91667824 .00009459 00000+0 61187-3 0 9995
L22 50177 53.2184 3.5712 0002329 37.5995 0.5043 15.08825109 26455

Live tracking and technical data element details for STARLINK-3282 (NORAD 50177). STARLINK-3282 can be tracked NOW for your location showing map with azimuth and elevation plus other details from your city location.

Track the satellite on the map from your city or location and see movement details for azimuth, elevation, latitude, longitude, range, height, and movement on the map or in text.







IsCatalogInMostPopularTable: catalog: 50177, numindb: 23
Update: records affected: 1



GetName: 50177 STARLINK-3282

Hit Count: updated at: Mon, 23 May 2022 20:34:52 GMT